Location: ????????
(60.4333°N, 46.4710°E)
Time: 18:46:46
(UTC+00:00)

Cosmos 864 Rocket - Pass Details

Date: 25 November 2020
Orbit: 952 x 992 km, 82.9° (Epoch: 16 January)

Event Time Altitude Azimuth Distance (km) Brightness Sun altitude
Rises 14:40:08 0° 345° (NNW) 3,725 7.6 -17.9°
Reaches altitude 10° 14:42:41 10° 347° (NNW) 2,771 6.9 -18.3°
Maximum altitude 14:49:04 81° 75° (ENE) 1,011 4.4 -19.0°
Drops below altitude 10° 14:55:23 10° 163° (SSE) 2,737 6.8 -19.8°
Sets 14:57:53 0° 165° (SSE) 3,676 7.4 -20.1°
